Location: Newark
(25.4297°S, 49.2719°W)
Time: 13:53:59
(UTC+00:00)

Vanguard 1 Rocket - Pass Details

Date: 22 November 2019
Orbit: 650 x 4226 km, 34.3° (Epoch: 06 December)

Event Time Altitude Azimuth Distance (km) Brightness Sun altitude
Rises 22:35:24 0° 246° (WSW) 8,476 14.6 -10.6°
Reaches altitude 10° 22:41:25 10° 246° (WSW) 7,423 13.6 -11.7°
Maximum altitude 23:06:38 79° 328° (NNW) 3,234 10.1 -16.6°
Enters shadow 23:17:42 24° 51° (NE) 3,919 10.0 -18.7°
Drops below altitude 10° 23:20:48 10° 53° (NE) 4,554 - -19.3°
Sets 23:23:31 0° 54° (NE) 5,203 - -19.8°
